STARLINK-3123 (49429 NORAD) Tracking and Keplerian Element Data

This shows tracking and keplerian element data for the satellite.

Feedback or suggestion? Click here.




ElementValue
Catalog49429
NameSTARLINK-3123
Epoch Orbit407
Epoch Day335
Epoch Year2021
RAAN42.9832
Inclination53.2103
Eccentricity0.0026157
Argument of Perigee101.579
Mean Anonmoly123.6431
Mean Motion16.36366297
Decay Rate0.03908231
L11 49429U 21104X 21335.00000000 .03908231 12240-4 37312-3 0 9998
L22 49429 53.2103 42.9832 0026157 101.5790 123.6431 16.36366297 4076

Live tracking and technical data element details for STARLINK-3123 (NORAD 49429). STARLINK-3123 can be tracked NOW for your location showing map with azimuth and elevation plus other details from your city location.

Track the satellite on the map from your city or location and see movement details for azimuth, elevation, latitude, longitude, range, height, and movement on the map or in text.







IsCatalogInMostPopularTable: catalog: 49429, numindb: 1
Update: records affected: 1



GetName: 49429 STARLINK-3123

Hit Count: updated at: Wed, 08 Dec 2021 15:24:46 GMT